| time (UTC) | temp C | wind direction | speed KPH | gust KPH | rain 1hr cm | rain 24hr cm | rain mn cm | humidity % | barometer mb |
| 20260506111530 | -3 | 0 | 0.0 | 0.0 | 0.00 | 0.08 | 0.00 | 91 | 1017.0 |
| 20260506110030 | -3 | 0 | 0.0 | 0.0 | 0.00 | 0.08 | 0.00 | 91 | 1016.8 |
| 20260506104533 | -3 | 0 | 0.0 | 0.0 | 0.00 | 0.08 | 0.00 | 91 | 1016.7 |
| 20260506103032 | -3 | 0 | 0.0 | 0.0 | 0.00 | 0.08 | 0.00 | 91 | 1016.7 |
| 20260506101536 | -3 | 0 | 0.0 | 0.0 | 0.00 | 0.08 | 0.00 | 91 | 1016.7 |
| 20260506100033 | -3 | 0 | 0.0 | 0.0 | 0.00 | 0.08 | 0.00 | 91 | 1016.7 |
| 20260506094528 | -3 | 0 | 0.0 | 0.0 | 0.00 | 0.18 | 0.00 | 91 | 1016.8 |
| 20260506093052 | -3 | 0 | 0.0 | 0.0 | 0.00 | 0.18 | 0.00 | 91 | 1017.0 |
| 20260506091533 | -3 | 0 | 0.0 | 0.0 | 0.00 | 0.18 | 0.00 | 91 | 1017.0 |
| 20260506090036 | -3 | 0 | 0.0 | 0.0 | 0.00 | 0.18 | 0.00 | 91 | 1017.0 |
| 20260506084530 | -3 | 0 | 0.0 | 0.0 | 0.00 | 0.20 | 0.00 | 91 | 1017.1 |
| 20260506083034 | -3 | 0 | 0.0 | 0.0 | 0.00 | 0.20 | 0.00 | 91 | 1017.1 |
| 20260506081528 | -3 | 0 | 0.0 | 0.0 | 0.00 | 0.20 | 0.00 | 91 | 1017.1 |
| 20260506073032 | -3 | 0 | 0.0 | 0.0 | 0.00 | 0.23 | 0.00 | 91 | 1017.5 |
| 20260506071534 | -2 | 0 | 0.0 | 0.0 | 0.00 | 0.23 | 0.00 | 91 | 1017.5 |
| 20260506061530 | -2 | 0 | 0.0 | 0.0 | 0.00 | 0.23 | 0.00 | 92 | 1017.0 |
| 20260506044533 | -2 | 0 | 0.0 | 0.0 | 0.00 | 0.23 | 0.23 | 92 | 1016.5 |
| 20260506043030 | -2 | 0 | 0.0 | 0.0 | 0.00 | 0.23 | 0.23 | 92 | 1016.5 |
| 20260506041530 | -2 | 0 | 0.0 | 0.0 | 0.00 | 0.23 | 0.23 | 92 | 1016.4 |
| 20260506040030 | -2 | 0 | 0.0 | 0.0 | 0.00 | 0.23 | 0.23 | 91 | 1016.3 |
| 20260506034532 | -2 | 0 | 0.0 | 0.0 | 0.00 | 0.23 | 0.23 | 91 | 1016.1 |
| 20260506033033 | -2 | 0 | 0.0 | 0.0 | 0.00 | 0.23 | 0.23 | 91 | 1016.1 |
| 20260506031530 | -2 | 0 | 0.0 | 0.0 | 0.00 | 0.23 | 0.23 | 92 | 1015.9 |
| 20260506030030 | -2 | 0 | 0.0 | 0.0 | 0.00 | 0.23 | 0.23 | 91 | 1015.8 |
| 20260506024529 | -2 | 0 | 0.0 | 0.0 | 0.00 | 0.25 | 0.23 | 91 | 1015.5 |
| 20260506023032 | -2 | 0 | 0.0 | 0.0 | 0.00 | 0.25 | 0.23 | 91 | 1015.3 |
| 20260506021530 | -2 | 0 | 0.0 | 0.0 | 0.00 | 0.25 | 0.23 | 91 | 1014.9 |
| 20260506020100 | -2 | 0 | 0.0 | 0.0 | 0.00 | 0.25 | 0.23 | 91 | 1014.8 |
| 20260506014531 | -2 | 0 | 0.0 | 0.0 | 0.00 | 0.25 | 0.23 | 90 | 1014.6 |
| 20260506013032 | -2 | 0 | 0.0 | 0.0 | 0.00 | 0.25 | 0.23 | 90 | 1014.3 |
| 20260506011528 | -2 | 0 | 0.0 | 0.0 | 0.00 | 0.25 | 0.23 | 91 | 1014.1 |
| 20260506010031 | -2 | 0 | 0.0 | 0.0 | 0.00 | 0.25 | 0.23 | 90 | 1014.0 |
| 20260506004539 | -2 | 0 | 0.0 | 0.0 | 0.00 | 0.64 | 0.23 | 90 | 1014.0 |
| 20260506003032 | -2 | 0 | 0.0 | 0.0 | 0.00 | 0.64 | 0.23 | 90 | 1014.1 |
| 20260506001528 | -2 | 0 | 0.0 | 0.0 | 0.00 | 0.64 | 0.23 | 90 | 1013.9 |
| 20260506000043 | -2 | 0 | 0.0 | 0.0 | 0.00 | 0.64 | 0.23 | 90 | 1013.7 |
| 20260505234532 | -2 | 0 | 0.0 | 0.0 | 0.00 | 0.64 | 0.23 | 90 | 1013.8 |
| 20260505233032 | -2 | 0 | 0.0 | 0.0 | 0.00 | 0.64 | 0.23 | 91 | 1013.7 |
| 20260505231532 | -2 | 0 | 0.0 | 0.0 | 0.00 | 0.64 | 0.23 | 91 | 1013.7 |
| 20260505230041 | -2 | 0 | 0.0 | 0.0 | 0.00 | 0.64 | 0.23 | 91 | 1013.9 |
| 20260505224542 | -2 | 0 | 0.0 | 0.0 | 0.00 | 0.64 | 0.23 | 90 | 1013.9 |
| 20260505223037 | -2 | 0 | 0.0 | 0.0 | 0.00 | 0.64 | 0.23 | 91 | 1013.8 |
| 20260505221529 | -1 | 0 | 0.0 | 0.0 | 0.00 | 0.64 | 0.23 | 91 | 1013.4 |
| 20260505220029 | -1 | 0 | 0.0 | 0.0 | 0.03 | 0.64 | 0.23 | 90 | 1013.5 |
| 20260505214530 | -1 | 0 | 0.0 | 0.0 | 0.03 | 0.64 | 0.23 | 88 | 1013.4 |
| 20260505213030 | 0 | 0 | 0.0 | 0.0 | 0.03 | 0.64 | 0.23 | 88 | 1013.1 |
| 20260505211548 | 0 | 0 | 0.0 | 0.0 | 0.03 | 0.64 | 0.23 | 89 | 1013.1 |
| 20260505210029 | 0 | 0 | 0.0 | 0.0 | 0.00 | 0.61 | 0.20 | 89 | 1013.2 |
| 20260505204530 | 0 | 0 | 0.0 | 0.0 | 0.00 | 0.61 | 0.20 | 90 | 1013.5 |
| 20260505203030 | 0 | 0 | 0.0 | 0.0 | 0.00 | 0.61 | 0.20 | 91 | 1013.8 |
| 20260505201537 | 0 | 0 | 0.0 | 0.0 | 0.00 | 0.61 | 0.20 | 91 | 1013.9 |
| 20260505200033 | 0 | 0 | 0.0 | 0.0 | 0.00 | 0.61 | 0.20 | 90 | 1014.2 |
| 20260505194533 | 0 | 0 | 0.0 | 0.0 | 0.03 | 0.61 | 0.20 | 90 | 1014.3 |
| 20260505193031 | 0 | 0 | 0.0 | 0.0 | 0.03 | 0.61 | 0.20 | 90 | 1014.3 |
| 20260505191535 | 0 | 0 | 0.0 | 0.0 | 0.03 | 0.61 | 0.20 | 89 | 1014.6 |
| 20260505190031 | 0 | 0 | 0.0 | 0.0 | 0.03 | 0.61 | 0.20 | 88 | 1014.6 |
| 20260505184539 | 0 | 0 | 0.0 | 0.0 | 0.03 | 0.58 | 0.18 | 87 | 1014.4 |
| 20260505183030 | 0 | 0 | 0.0 | 0.0 | 0.03 | 0.58 | 0.18 | 87 | 1014.5 |
| 20260505181532 | 0 | 0 | 0.0 | 0.0 | 0.03 | 0.58 | 0.18 | 90 | 1014.5 |
| 20260505180029 | 0 | 0 | 0.0 | 0.0 | 0.03 | 0.58 | 0.18 | 89 | 1014.6 |
| 20260505174537 | 0 | 0 | 0.0 | 0.0 | 0.00 | 0.56 | 0.15 | 90 | 1015.0 |
| 20260505173030 | 0 | 0 | 0.0 | 0.0 | 0.00 | 0.56 | 0.15 | 90 | 1014.9 |
| 20260505171538 | 0 | 0 | 0.0 | 0.0 | 0.00 | 0.56 | 0.15 | 90 | 1015.0 |
| 20260505170032 | 0 | 0 | 0.0 | 0.0 | 0.00 | 0.56 | 0.15 | 90 | 1015.5 |
| 20260505164530 | 0 | 0 | 0.0 | 0.0 | 0.00 | 0.56 | 0.15 | 90 | 1015.7 |
| 20260505163032 | 0 | 0 | 0.0 | 0.0 | 0.00 | 0.56 | 0.15 | 90 | 1015.2 |
| 20260505161530 | 0 | 0 | 0.0 | 0.0 | 0.00 | 0.56 | 0.15 | 89 | 1015.3 |
| 20260505153040 | 0 | 0 | 0.0 | 0.0 | 0.00 | 0.56 | 0.15 | 92 | 1015.7 |
| 20260505151530 | 0 | 0 | 0.0 | 0.0 | 0.00 | 0.56 | 0.15 | 92 | 1015.6 |
| 20260505124536 | 0 | 0 | 0.0 | 0.0 | 0.00 | 0.56 | 0.15 | 93 | 1015.3 |
| 20260505123046 | 0 | 0 | 0.0 | 0.0 | 0.00 | 0.56 | 0.15 | 93 | 1015.0 |
| 20260505121532 | 0 | 0 | 0.0 | 0.0 | 0.00 | 0.56 | 0.15 | 93 | 1015.0 |
| 20260505120034 | 0 | 0 | 0.0 | 0.0 | 0.00 | 0.56 | 0.15 | 93 | 1014.8 |
| 20260505114532 | 0 | 0 | 0.0 | 0.0 | 0.00 | 0.56 | 0.15 | 93 | 1014.7 |
| 20260505113032 | 0 | 0 | 0.0 | 8.0 | 0.00 | 0.56 | 0.15 | 93 | 1014.8 |